Weather observations for the past three days for
San Angelo, Mathis Field
Imperial (Metric)
Date Time (cdt) Wind (mph) Vis. (mi.) Weather Sky Cond. Temperature (ºF) Relative Humidity Wind Chill (°F) Heat Index (°F) Pressure Precipitation (in)
Air Dwpt 6 hour altimeter (in) sea level (mb) 1 hr 3 hr 6 hr
Max. Min.
18 14:51 Calm 10.00 Partly Cloudy SCT047 SCT055 87.1 64.9 48% 89 30.14 1017.8
18 13:51 Calm 10.00 Partly Cloudy SCT035 SCT042 86 69.1 57% 90 30.16 1018.8
18 12:51 E 8 10.00 Mostly Cloudy BKN024 82 70 82.9 72 67% 86 30.18 1019.5 0.5
18 11:51 E 10 10.00 Fair CLR 80.1 70 71% 83 30.18 1019.4
18 10:51 NE 7 10.00 Fair CLR 75.9 71.1 85% 76 30.19 1019.9
18 09:51 NE 5 10.00 Mostly Cloudy BKN009 BKN120 73.9 71.1 91% 30.16 1019.1 0.5
18 08:51 W 6 10.00 Mostly Cloudy SCT060 BKN085 73 70 90% 30.16 1018.7
18 07:51 SW 3 8.00 Thunderstorm in Vicinity SCT045 SCT055 BKN095 73 71.1 94% 30.13 1017.8 0.5
18 06:51 SE 9 0.75 Thunderstorm Heavy Rain Fog/Mist FEW014 BKN023 OVC039 72 70 80.1 72 94% 30.1 1016.9 0.17 0.17
18 05:51 NE 9 10.00 Thunderstorm in Vicinity BKN042 OVC080 75.9 68 77% 77 30.1 1016.3
18 04:51 NE 6 10.00 Fair CLR 77 66 69% 79 30.08 1015.5
18 03:51 E 3 10.00 A Few Clouds FEW080 78.1 66.9 69% 80 30.07 1015.3
18 02:51 NE 7 10.00 A Few Clouds FEW080 78.1 66.9 69% 80 30.08 1015.6
18 01:51 NE 7 10.00 Fair CLR 79 68 69% 81 30.08 1015.7
18 00:51 E 10 10.00 Fair CLR 80.1 70 91.9 80.1 71% 83 30.07 1015.5
17 23:51 NE 9 10.00 Fair CLR 81 70 69% 84 30.07 1015.2
17 22:51 NE 10 10.00 Fair CLR 82.9 70 65% 87 30.06 1015.2
17 19:51 N 8 10.00 Fair CLR 91.4 64.4 41% 93 30.01 0.0
17 18:51 NE 12 10.00 A Few Clouds FEW100 91.4 62.6 38% 92 30 0.0
17 17:51 E 10 10.00 Fair CLR 93.2 59 32% 93 29.98 0.0
17 16:51 E 10 G 16 10.00 Mostly Cloudy BKN095 100.4 57.2 24% 100 29.96 0.0
17 15:51 E 7 10.00 Partly Cloudy SCT085 100.4 57.2 24% 100 29.97 0.0
17 14:51 Calm 10.00 Partly Cloudy SCT080 96.8 60.8 30% 97 30.01 0.0
17 13:51 S 8 G 16 10.00 Fair CLR 99 63 31% 101 30.04 1013.9
17 12:51 Calm 10.00 Fair CLR 95 64.9 96.1 75.9 37% 98 30.05 1014.3
17 11:51 SE 6 10.00 Fair CLR 91 66.9 45% 94 30.05 1014.5
17 10:51 Vrbl 5 10.00 Fair CLR 88 70 55% 93 30.06 1014.9
17 08:51 Vrbl 3 10.00 Fair CLR 80.1 70 71% 83 30.06 1015.0
17 07:51 S 10 10.00 Fair CLR 78.1 68 71% 80 30.03 1013.8
17 06:51 S 7 10.00 Fair CLR 77 66 86 75.9 69% 79 30.02 1013.7
17 05:51 S 3 10.00 Fair CLR 78.1 64 62% 80 30.01 1013.2
17 04:51 S 6 10.00 Fair CLR 78.1 63 60% 80 29.99 1012.6
17 03:51 S 8 10.00 Fair CLR 81 63 54% 82 29.99 1012.4
17 02:51 S 10 G 18 10.00 Fair CLR 82.9 62.1 49% 84 29.98 1012.1
17 01:51 SW 8 10.00 Fair CLR 84 59 43% 84 29.97 1011.6
17 00:51 S 10 10.00 Fair CLR 86 59 102 86 40% 85 29.96 1011.3
16 23:51 S 13 G 25 10.00 Fair CLR 89.1 59 36% 88 29.95 1011.0
16 22:51 S 10 G 18 10.00 Fair CLR 91 55.9 31% 89 29.91 1009.8
16 21:51 S 7 10.00 Fair CLR 91.9 55 29% 90 29.91 1009.8
16 20:51 S 9 10.00 Fair CLR 96.1 54 24% 94 29.89 1009.2
16 19:51 SE 8 10.00 Fair CLR 99 53.1 21% 97 29.88 1008.9
16 18:51 S 13 G 20 10.00 A Few Clouds FEW100 100.9 55 104 96.1 22% 99 29.88 1008.9
16 17:51 S 10 G 17 10.00 Fair CLR 102 55 21% 101 29.89 1009.2
16 16:51 S 14 G 20 10.00 Fair CLR 102.9 55.9 21% 102 29.91 1009.6
16 15:51 SW 9 10.00 Fair CLR 102.9 55 20% 102 29.93 1010.3
16 14:51 S 12 10.00 Fair CLR 100.9 53.1 20% 99 29.95 1010.8
16 13:51 SW 6 10.00 Fair CLR 99 62.1 30% 100 29.97 1011.8
16 12:51 SW 7 10.00 Fair CLR 96.1 63 97 77 34% 98 29.99 1012.5
16 11:51 S 10 G 17 10.00 Fair CLR 93.9 64 37% 96 30.01 1013.2
16 10:51 S 14 G 23 10.00 Fair CLR 90 64 42% 91 30.01 1013.3
16 09:51 S 13 10.00 Fair CLR 86 66.9 53% 89 30.01 1013.3
16 08:51 S 16 G 28 10.00 Fair CLR 81 66 61% 83 30.01 1013.3
16 07:51 S 14 10.00 Fair CLR 78.1 64 62% 80 30 1012.9
16 06:51 S 13 G 22 10.00 Fair CLR 77 63 84.9 75.9 62% 79 29.99 1012.4
16 05:51 S 9 10.00 Fair CLR 77 63 62% 79 29.98 1012.2
16 04:51 S 9 10.00 Fair CLR 79 63 58% 81 29.97 1011.8
16 00:51 S 9 10.00 Fair CLR 84.9 57.9 100 84.9 40% 84 29.97 1011.7
15 23:51 S 8 10.00 Fair CLR 87.1 59 39% 86 29.96 1011.4
15 22:51 S 8 10.00 Fair CLR 89.1 57.9 35% 88 29.94 1010.9
15 21:51 S 8 10.00 Fair CLR 91 57 32% 90 29.93 1010.5
15 20:51 S 10 10.00 Fair CLR 93.9 57 29% 93 29.91 1009.9
15 19:51 S 14 10.00 Fair CLR 98.1 55.9 24% 97 29.91 1009.8
15 18:51 S 13 G 21 10.00 Fair CLR 100 55.9 102 97 23% 99 29.91 1009.8
15 17:51 S 9 G 26 10.00 A Few Clouds FEW100 99 57 25% 98 29.92 1010.2
15 16:51 S 14 G 22 10.00 Fair CLR 100 57 24% 99 29.93 1010.5
15 15:51 S 9 G 24 10.00 Fair CLR 102 60.1 25% 103 29.95 1011.1
Date Time (cdt) Wind (mph) Vis. (mi.) Weather Sky Cond. Air Dwpt Max. Min. Relative Humidity Wind Chill (°F) Heat Index (°F) altimeter (in) sea level (mb) 1 hr 3 hr 6 hr
6 hour
Temperature (ºF) Pressure Precipitation (in)